Location: Azul
(36.7830°S, 59.8500°W)
Time: 16:28:07
(UTC-03:00)

First-Move - Visible Passes

Search period start: 02 October 2022 00:00
Search period end: 12 October 2022 00:00
Orbit: 569 x 658 km, 97.6° (Epoch: 02 October)

Date Brightness Start Highest point End Pass type
(mag) Time Alt. Az. Time Alt. Az. Time Alt. Az.
02 Oct ? 03:49:01 30° SSE 03:49:01 30° SSE 03:51:35 10° S visible
03 Oct ? 04:04:23 35° S 04:04:23 35° S 04:07:07 10° S visible
04 Oct ? 02:42:42 10° ESE 02:42:42 10° ESE 02:42:53 10° ESE visible
04 Oct ? 04:19:43 37° SSW 04:19:43 37° SSW 04:22:32 10° SSW visible
05 Oct ? 02:58:01 15° ESE 02:58:01 15° ESE 03:00:20 10° SSE visible
05 Oct ? 04:35:03 33° SW 04:35:03 33° SW 04:37:48 10° SSW visible
06 Oct ? 03:13:20 21° ESE 03:13:20 21° ESE 03:16:27 10° SSE visible
06 Oct ? 04:50:22 26° WSW 04:50:22 26° WSW 04:52:56 10° SSW visible
07 Oct ? 03:28:39 30° ESE 03:28:39 30° ESE 03:32:15 10° S visible
07 Oct ? 05:05:40 20° WSW 05:05:40 20° WSW 05:07:50 10° SW visible
08 Oct ? 03:43:57 43° SE 03:43:57 43° SE 03:47:51 10° S visible
08 Oct ? 05:20:58 14° WSW 05:20:58 14° WSW 05:22:25 10° SW visible
09 Oct ? 03:59:14 62° SE 03:59:14 62° SE 04:03:19 10° S visible
10 Oct ? 04:14:30 72° SW 04:14:30 72° SW 04:18:40 10° SSW visible
11 Oct ? 02:52:46 13° E 02:53:54 14° ESE 02:56:09 10° SE visible
11 Oct ? 04:29:46 53° W 04:29:46 53° W 04:33:54 10° SSW visible
